[[{"header":{"parameterUnit":"m.s-1","parameterCategory":2,"la1":30.2991,"la2":30.254,"lo1":-89.0895,"lo2":-89.0444,"dy":0.0017,"dx":0.0017,"nx":28,"ny":28,"refTime":"2024-10-05T03:00:00:Z","depth":"0","parameterNumber":2,"parameterNumberName":"U-component_of_CURRENTS"},"data":[0,0,0,0,0,0,0,0,0,0,0,0,0,0,0,0,0,0,0,0,0,0,0,0,0,0,0,0,0,0,0,0,0,0,0,0,0,0,0,0,0,0,0,0,0,0,0,0,0,0,0,0,0,0,0,0,0,0,0.1463,0.1463,0,0.1486,0.1486,0.1487,0.1497,0.1497,0.1497,0.1497,0.1491,0.1491,0.149,0,0,0,0,0,0,0,0,0,0,0,0,0,0.1427,0.1428,0.1463,0.1463,0.1464,0.1486,0.1486,0.1487,0.1496,0.1497,0.1497,0.1497,0.1491,0.1491,0.149,0,0,0,0,0,0,0,0,0,0,0,0,0,0.1445,0.1428,0.1463,0.1472,0.1474,0.1486,0.1486,0.1487,0.1496,0.1497,0.1497,0.1497,0.1491,0.1491,0.149,0.1486,0,0,0.1489,0.1489,0,0,0,0,0,0,0,0,0.1444,0.1446,0.1471,0.1472,0.1473,0.149,0.1472,0.1485,0.1496,0.1486,0.1497,0.1497,0.1489,0.1488,0.1491,0.1485,0.1485,0.1489,0.1489,0.1489,0.1489,0,0,0,0,0,0,0,0.1442,0.1445,0.1471,0.1471,0.1473,0.1476,0.1478,0.1474,0.1485,0.1487,0.1488,0.1493,0.1489,0.1491,0.1491,0.1485,0.1489,0.1489,0.1489,0.1488,0.1502,0.1503,0,0,0,0,0,0,0.1442,0.1444,0.147,0.1472,0.146,0.1476,0.1479,0.1483,0.1486,0.1487,0.1493,0.1494,0.1492,0.1491,0.1491,0.151,0.1489,0.1488,0.1488,0.1502,0.1502,0.1503,0,0,0,0,0,0,0.1441,0.1444,0.1469,0.1459,0.1463,0.1477,0.1482,0.1484,0.1489,0.1491,0.1491,0.1496,0.1492,0.1491,0.1496,0.1509,0.1488,0.1488,0.1501,0.1502,0.1503,0.1534,0,0,0,0,0,0,0.144,0.1444,0.1443,0.1459,0.1463,0.148,0.1482,0.1484,0.1492,0.1493,0.1493,0.1493,0.1492,0.1497,0.1496,0.1508,0.1488,0.15,0.1501,0.1502,0.1532,0.1535,0.1538,0,0,0,0,0,0.1439,0.1439,0.1443,0.1446,0.1464,0.1481,0.1483,0.1492,0.1492,0.1497,0.15,0.1493,0.1503,0.1497,0.1495,0.1508,0.15,0.1501,0.1502,0.153,0.1535,0.1538,0,0,0,0,0,0,0.1418,0.144,0.1446,0.1451,0.1467,0.1483,0.1486,0.1493,0.1499,0.1499,0.1498,0.1498,0.1508,0.1502,0.1495,0.1516,0.1501,0.1502,0.1523,0.1527,0.153,0.1531,0.1487,0,0,0,0,0,0.1415,0.1422,0.1444,0.1447,0.1456,0.1471,0.1477,0.1487,0.1496,0.1499,0.1501,0.1504,0.1512,0.1514,0.1517,0.1524,0.1528,0.1532,0.1536,0.1538,0.1538,0.1547,0.1551,0.1507,0.1507,0.1507,0,0,0.1405,0.142,0.1422,0.1444,0.1455,0.1474,0.1475,0.1488,0.1504,0.1496,0.1511,0.1513,0.1516,0.153,0.1534,0.1527,0.1559,0.154,0.1543,0.1541,0.1548,0.1553,0.1556,0.1508,0.1508,0.1508,0,0,0.1399,0.1406,0.1416,0.1434,0.1457,0.1471,0.1476,0.1497,0.1505,0.1521,0.1524,0.1533,0.1539,0.155,0.1555,0.1575,0.1576,0.1577,0.1595,0.1603,0.1606,0.1609,0.1647,0.1653,0.1579,0.1579,0.1579,0,0.1387,0.1407,0.142,0.144,0.1456,0.1472,0.1491,0.1505,0.1523,0.1532,0.1529,0.1549,0.1551,0.1573,0.1586,0.1583,0.1595,0.158,0.1607,0.161,0.1613,0.165,0.1656,0.1581,0.1581,0.1581,0.158,0,0.1397,0.1414,0.1422,0.1455,0.1472,0.149,0.1516,0.1531,0.1542,0.1556,0.1575,0.1579,0.1591,0.1598,0.16,0.1624,0.1631,0.161,0.1597,0.1619,0.1657,0.1663,0.1583,0.1583,0.1582,0.1582,0,0,0.1369,0.1419,0.1423,0.1445,0.1484,0.1499,0.1528,0.1559,0.1579,0.1591,0.1613,0.1629,0.1628,0.1633,0.1636,0.1646,0.1688,0.164,0.1639,0.1678,0.1731,0.1819,0.1834,0.1669,0.167,0.167,0.176,0,0.1375,0.1415,0.1439,0.1476,0.15,0.1527,0.1553,0.1581,0.1602,0.1626,0.1634,0.1655,0.1643,0.1655,0.1661,0.1681,0.1701,0.1667,0.1703,0.1704,0.178,0.1842,0.1852,0.1939,0.1765,0.1766,0.1767,0,0.1381,0.141,0.1446,0.1496,0.1508,0.1529,0.1575,0.1602,0.1639,0.1656,0.1672,0.168,0.171,0.1687,0.1729,0.1708,0.1723,0.1734,0.1737,0.1809,0.1803,0.1883,0.1956,0.1924,0.1776,0.1776,0.1775,0,0.1363,0.1415,0.1444,0.1462,0.1517,0.1535,0.1564,0.1606,0.1635,0.1677,0.1703,0.1723,0.1751,0.1755,0.1798,0.176,0.1852,0.1796,0.1891,0.1898,0.1909,0.1917,0.1954,0.1821,0.1821,0.182,0.182,0,0.1365,0.1388,0.1438,0.1455,0.1485,0.1528,0.1562,0.1596,0.1648,0.1689,0.1714,0.176,0.1767,0.1823,0.1826,0.1913,0.1879,0.192,0.1932,0.1925,0.1933,0.1907,0.1872,0.1824,0.1823,0.1822,0.1822,0,0.134,0.1376,0.1409,0.1463,0.1478,0.1498,0.156,0.1589,0.1647,0.1704,0.1724,0.1805,0.1899,0.1934,0.198,0.198,0.1999,0.2063,0.2082,0.2096,0.2137,0.2105,0.2056,0.1977,0.2168,0.2171,0.2173,0,0.133,0.1347,0.14,0.1417,0.144,0.1478,0.1504,0.1573,0.1612,0.1738,0.1766,0.1893,0.1994,0.2134,0.2179,0.2249,0.2126,0.2269,0.219,0.2175,0.2145,0.2002,0.1925,0.222,0.2222,0.2224,0.2226,0,0.1309,0.1327,0.1354,0.1389,0.1417,0.1449,0.1499,0.1534,0.1628,0.171,0.1847,0.1952,0.2137,0.2251,0.2369,0.2387,0.2192,0.2316,0.2274,0.2188,0.2057,0.1976,0.2141,0.2245,0.2243,0.2241,0.224,0.224,0.1282,0.1293,0.133,0.136,0.139,0.1423,0.1439,0.1516,0.1604,0.1722,0.1858,0.2016,0.2239,0.2435,0.2439,0.2481,0.2356,0.2417,0.2382,0.2239,0.2152,0.2395,0.2528,0.2527,0.2527,0.2527,0.2527,0,0.1249,0.1273,0.1301,0.1334,0.135,0.1382,0.1434,0.1452,0.1545,0.1707,0.1845,0.2129,0.2316,0.2447,0.2607,0.2551,0.2357,0.248,0.2253,0.217,0.2388,0.2383,0.2522,0.2522,0.2522,0.2522,0.2522,0.2522,0.1233,0.1248,0.1268,0.1286,0.1308,0.1312,0.1333,0.1382,0.148,0.1672,0.1841,0.1997,0.2341,0.2631,0.2671,0.2592,0.2327,0.2289,0.2176,0.2341,0.2329,0.2318,0.2304,0.2425,0.2425,0.1873,0.187,0.1867]},{"header":{"parameterUnit":"m.s-1","parameterCategory":2,"la1":30.2991,"la2":30.254,"lo1":-89.0895,"lo2":-89.0444,"dy":0.0017,"dx":0.0017,"nx":28,"ny":28,"refTime":"2024-10-05T03:00:00:Z","depth":"0","parameterNumber":3,"parameterNumberName":"V-component_of_CURRENTS"},"data":[0,0,0,0,0,0,0,0,0,0,0,0,0,0,0,0,0,0,0,0,0,0,0,0,0,0,0,0,0,0,0,0,0,0,0,0,0,0,0,0,0,0,0,0,0,0,0,0,0,0,0,0,0,0,0,0,0,0,-0.0319,-0.0319,0,-0.0353,-0.0353,-0.0353,-0.0382,-0.0383,-0.0383,-0.0383,-0.0439,-0.044,-0.0441,0,0,0,0,0,0,0,0,0,0,0,0,0,-0.0301,-0.0302,-0.0319,-0.0319,-0.032,-0.0352,-0.0353,-0.0353,-0.0382,-0.0383,-0.0383,-0.0383,-0.0438,-0.044,-0.0441,0,0,0,0,0,0,0,0,0,0,0,0,0,-0.032,-0.0302,-0.0319,-0.0338,-0.034,-0.0352,-0.0353,-0.0354,-0.0382,-0.0383,-0.0383,-0.0384,-0.0438,-0.044,-0.0441,-0.0444,0,0,-0.0447,-0.0448,0,0,0,0,0,0,0,0,-0.0319,-0.032,-0.0335,-0.0337,-0.0339,-0.0363,-0.0367,-0.0385,-0.0382,-0.0367,-0.0383,-0.0384,-0.0415,-0.0419,-0.0424,-0.0446,-0.0449,-0.0447,-0.0448,-0.0449,-0.0449,0,0,0,0,0,0,0,-0.0317,-0.0319,-0.0333,-0.0335,-0.0338,-0.0352,-0.0355,-0.0371,-0.0389,-0.0368,-0.037,-0.0373,-0.0416,-0.0422,-0.0426,-0.045,-0.0447,-0.0449,-0.045,-0.045,-0.0493,-0.0493,0,0,0,0,0,0,-0.0311,-0.0318,-0.0332,-0.0334,-0.0329,-0.0352,-0.0355,-0.0355,-0.0388,-0.0393,-0.0373,-0.0374,-0.0419,-0.0424,-0.0428,-0.0451,-0.0449,-0.0451,-0.0452,-0.0493,-0.0493,-0.0493,0,0,0,0,0,0,-0.031,-0.0311,-0.033,-0.0326,-0.033,-0.0351,-0.0352,-0.0356,-0.0362,-0.0391,-0.0397,-0.0374,-0.042,-0.0425,-0.0442,-0.0452,-0.0451,-0.0453,-0.0493,-0.0493,-0.0493,-0.0485,0,0,0,0,0,0,-0.0309,-0.0311,-0.0307,-0.0326,-0.033,-0.0334,-0.0351,-0.0356,-0.0363,-0.0365,-0.0395,-0.04,-0.042,-0.0439,-0.0444,-0.0455,-0.0455,-0.0493,-0.0493,-0.0493,-0.0485,-0.0485,-0.0484,0,0,0,0,0,-0.0309,-0.0299,-0.0307,-0.0309,-0.0325,-0.0334,-0.0337,-0.0355,-0.0362,-0.0362,-0.0384,-0.0399,-0.0443,-0.044,-0.0446,-0.0458,-0.0493,-0.0493,-0.0493,-0.0485,-0.0485,-0.0484,0,0,0,0,0,0,-0.0284,-0.0301,-0.0311,-0.0306,-0.0318,-0.0339,-0.0338,-0.0351,-0.0367,-0.0369,-0.0398,-0.0405,-0.0424,-0.0437,-0.0434,-0.0469,-0.0471,-0.0473,-0.0464,-0.0463,-0.0463,-0.0473,-0.0456,0,0,0,0,0,-0.0278,-0.0278,-0.0297,-0.0292,-0.0297,-0.0317,-0.0322,-0.0335,-0.0352,-0.0359,-0.0381,-0.0405,-0.0429,-0.0442,-0.0461,-0.0477,-0.0496,-0.0489,-0.0488,-0.0488,-0.0499,-0.054,-0.0545,-0.0493,-0.0493,-0.0493,0,0,-0.0267,-0.0276,-0.0276,-0.0287,-0.0298,-0.0309,-0.0321,-0.0327,-0.0341,-0.0363,-0.0383,-0.0402,-0.0431,-0.0454,-0.0464,-0.0467,-0.0507,-0.0488,-0.0488,-0.05,-0.0541,-0.0546,-0.0551,-0.0493,-0.0493,-0.0493,0,0,-0.0249,-0.0253,-0.0251,-0.0263,-0.0278,-0.0294,-0.0294,-0.0315,-0.0328,-0.0346,-0.0371,-0.0396,-0.0422,-0.0455,-0.0473,-0.0481,-0.0501,-0.0482,-0.0493,-0.0532,-0.0537,-0.0541,-0.0548,-0.0553,-0.0484,-0.0484,-0.0484,0,-0.0235,-0.0239,-0.0251,-0.0257,-0.0267,-0.0287,-0.0293,-0.031,-0.0335,-0.0352,-0.035,-0.0409,-0.0429,-0.0477,-0.048,-0.0483,-0.0496,-0.0493,-0.0532,-0.0538,-0.0543,-0.0549,-0.0555,-0.0484,-0.0484,-0.0484,-0.0484,0,-0.0224,-0.0229,-0.0227,-0.0246,-0.0257,-0.0262,-0.029,-0.0304,-0.0321,-0.0345,-0.0384,-0.0413,-0.0453,-0.0461,-0.0475,-0.0522,-0.0515,-0.0525,-0.0535,-0.0548,-0.0552,-0.0559,-0.0483,-0.0483,-0.0484,-0.0484,0,0,-0.019,-0.0215,-0.0216,-0.0225,-0.0253,-0.0259,-0.0285,-0.0318,-0.0337,-0.0367,-0.0399,-0.0446,-0.0465,-0.0487,-0.0509,-0.0545,-0.058,-0.0549,-0.0552,-0.0558,-0.0645,-0.0612,-0.0615,-0.0599,-0.0601,-0.0602,-0.0625,0,-0.0181,-0.0188,-0.0208,-0.0219,-0.0226,-0.0258,-0.0279,-0.0312,-0.0341,-0.0373,-0.0422,-0.045,-0.0474,-0.0485,-0.0532,-0.0566,-0.0601,-0.0572,-0.0631,-0.0632,-0.0604,-0.0624,-0.0598,-0.0616,-0.0632,-0.0633,-0.0634,0,-0.0168,-0.0176,-0.0183,-0.021,-0.0215,-0.0226,-0.0265,-0.0286,-0.0344,-0.0365,-0.0417,-0.0449,-0.0509,-0.0518,-0.0606,-0.0585,-0.062,-0.0646,-0.0648,-0.0631,-0.0613,-0.0611,-0.0627,-0.0757,-0.0644,-0.0643,-0.0642,0,-0.0141,-0.016,-0.0165,-0.0174,-0.0205,-0.0216,-0.0235,-0.0283,-0.0289,-0.0356,-0.0355,-0.0452,-0.0461,-0.055,-0.0599,-0.0608,-0.0679,-0.0699,-0.0704,-0.0701,-0.0699,-0.0692,-0.0853,-0.0771,-0.0771,-0.0771,-0.0771,0,-0.0126,-0.0128,-0.0149,-0.015,-0.015,-0.0186,-0.0192,-0.0226,-0.0258,-0.0247,-0.034,-0.0333,-0.0468,-0.0517,-0.0597,-0.0657,-0.068,-0.0714,-0.0716,-0.069,-0.0683,-0.0811,-0.0898,-0.0772,-0.0772,-0.0772,-0.0771,0,-0.0095,-0.0112,-0.0112,-0.0134,-0.0135,-0.0132,-0.0137,-0.0137,-0.0174,-0.016,-0.0169,-0.0237,-0.0294,-0.0417,-0.0533,-0.0615,-0.0768,-0.0714,-0.0656,-0.0652,-0.0791,-0.0877,-0.104,-0.1096,-0.0746,-0.0745,-0.0745,0,-0.008,-0.0077,-0.0081,-0.0065,-0.007,-0.0067,-0.0055,-0.0089,-0.0071,-0.0076,-0.005,-0.0104,-0.01,-0.0265,-0.044,-0.0587,-0.0725,-0.067,-0.0701,-0.0807,-0.0905,-0.0966,-0.1006,-0.0685,-0.0684,-0.0683,-0.0683,0,-0.0047,-0.0048,-0.0042,-0.0006,0.0013,0.0038,0.0059,0.0095,0.008,0.012,0.018,0.0185,0.0025,-0.0101,-0.0325,-0.0452,-0.0773,-0.0658,-0.0804,-0.0907,-0.0953,-0.1001,-0.0641,-0.0676,-0.0677,-0.0677,-0.0678,-0.0678,-0.0013,0.0005,0.0022,0.0058,0.009,0.0153,0.0205,0.0257,0.0335,0.0429,0.0395,0.0462,0.0207,-0.0087,-0.0298,-0.068,-0.0709,-0.0791,-0.0893,-0.0949,-0.1002,-0.0607,-0.0622,-0.0623,-0.0623,-0.0623,-0.0623,0,0.0034,0.0054,0.0089,0.014,0.02,0.0201,0.0292,0.0371,0.0516,0.0615,0.0695,0.0641,0.0328,-0.0043,-0.0548,-0.0842,-0.0983,-0.1032,-0.1144,-0.1179,-0.0855,-0.0851,-0.0873,-0.0873,-0.0873,-0.0872,-0.0872,-0.0872,0.0061,0.0106,0.0124,0.0231,0.0279,0.0384,0.0456,0.0591,0.0695,0.088,0.0959,0.0975,0.0713,-0.027,-0.094,-0.1123,-0.1367,-0.142,-0.1541,-0.1351,-0.1337,-0.1323,-0.1341,-0.1465,-0.1466,-0.1808,-0.1812,-0.1815]}],[{"header":{"parameterUnit":"m.s-1","parameterCategory":2,"la1":30.2991,"la2":30.254,"lo1":-89.0895,"lo2":-89.0444,"dy":0.0017,"dx":0.0017,"nx":28,"ny":28,"refTime":"2024-10-05T03:00:00:Z","depth":"2","parameterNumber":2,"parameterNumberName":"U-component_of_CURRENTS"},"data":[0,0,0,0,0,0,0,0,0,0,0,0,0,0,0,0,0,0,0,0,0,0,0,0,0,0,0,0,0,0,0,0,0,0,0,0,0,0,0,0,0,0,0,0,0,0,0,0,0,0,0,0,0,0,0,0,0,0,0.1492,0.1492,0,0.1512,0.1512,0.1512,0.1523,0.1523,0.1523,0.1523,0.1524,0.1524,0.1524,0,0,0,0,0,0,0,0,0,0,0,0,0,0.1467,0.1467,0.1492,0.1492,0.1492,0.1512,0.1512,0.1512,0.1523,0.1523,0.1523,0.1523,0.1524,0.1524,0.1524,0,0,0,0,0,0,0,0,0,0,0,0,0,0.148,0.1467,0.1492,0.1501,0.1502,0.1512,0.1512,0.1512,0.1523,0.1523,0.1523,0.1523,0.1524,0.1524,0.1524,0.1519,0,0,0.1523,0.1523,0,0,0,0,0,0,0,0,0.148,0.1481,0.1499,0.15,0.1502,0.1516,0.1504,0.1514,0.1523,0.1514,0.1523,0.1523,0.152,0.152,0.1522,0.1519,0.1519,0.1523,0.1523,0.1523,0.1523,0,0,0,0,0,0,0,0.1479,0.148,0.1499,0.15,0.1501,0.1506,0.1508,0.1506,0.1514,0.1514,0.1515,0.152,0.152,0.1522,0.1522,0.1519,0.1523,0.1523,0.1523,0.1523,0.1546,0.1547,0,0,0,0,0,0,0.1478,0.1479,0.1498,0.1499,0.1492,0.1506,0.1508,0.151,0.1515,0.1516,0.1519,0.152,0.1523,0.1522,0.1522,0.1552,0.1523,0.1523,0.1523,0.1546,0.1546,0.1547,0,0,0,0,0,0,0.1477,0.1479,0.1497,0.1491,0.1494,0.1506,0.1509,0.1511,0.1517,0.1519,0.152,0.1524,0.1523,0.1523,0.1531,0.1551,0.1523,0.1523,0.1545,0.1546,0.1547,0.159,0,0,0,0,0,0,0.1476,0.1479,0.1479,0.1491,0.1494,0.1508,0.1509,0.1511,0.1519,0.152,0.1523,0.1523,0.1523,0.1531,0.153,0.155,0.1523,0.1544,0.1545,0.1546,0.1587,0.1592,0.1596,0,0,0,0,0,0.1475,0.1474,0.1478,0.1481,0.1494,0.1509,0.1511,0.152,0.1519,0.1525,0.1529,0.1523,0.1539,0.1531,0.1531,0.1551,0.1543,0.1545,0.1546,0.1585,0.1591,0.1596,0,0,0,0,0,0,0.1457,0.1475,0.1481,0.1483,0.1498,0.1511,0.1515,0.1521,0.1528,0.1529,0.1529,0.1529,0.1546,0.1539,0.153,0.1561,0.1541,0.1543,0.1571,0.1577,0.1581,0.1584,0.1522,0,0,0,0,0,0.1454,0.1461,0.1479,0.1481,0.1489,0.1502,0.1508,0.1517,0.1527,0.153,0.1534,0.1539,0.1551,0.1556,0.156,0.1573,0.1577,0.1586,0.1591,0.1594,0.1596,0.1611,0.1617,0.1552,0.1552,0.1552,0,0,0.1446,0.1458,0.146,0.1478,0.1489,0.1511,0.1506,0.1519,0.154,0.1528,0.155,0.1552,0.1557,0.1577,0.1584,0.1575,0.1621,0.1596,0.16,0.16,0.1613,0.162,0.1625,0.1553,0.1553,0.1553,0,0,0.1442,0.1446,0.1457,0.1475,0.1498,0.1512,0.1517,0.1536,0.1546,0.1566,0.1568,0.1581,0.1592,0.1606,0.1613,0.1641,0.1641,0.1643,0.167,0.1685,0.169,0.1695,0.1733,0.1741,0.1647,0.1648,0.1648,0,0.1432,0.1453,0.1462,0.1485,0.1503,0.1515,0.1538,0.1554,0.1573,0.1585,0.1578,0.1606,0.1609,0.1642,0.1657,0.1652,0.1666,0.1651,0.1691,0.1696,0.17,0.1737,0.1745,0.165,0.165,0.1649,0.1649,0,0.1447,0.1466,0.1475,0.1513,0.1531,0.1551,0.1578,0.1596,0.1607,0.1623,0.165,0.1653,0.167,0.1678,0.1678,0.1714,0.1717,0.1694,0.1679,0.1709,0.1747,0.1754,0.1653,0.1652,0.1652,0.1651,0,0,0.1418,0.1475,0.1479,0.1504,0.1549,0.1564,0.1602,0.1639,0.1663,0.1679,0.1708,0.173,0.1726,0.1734,0.1734,0.175,0.1802,0.1739,0.1738,0.1779,0.1855,0.1887,0.1898,0.1784,0.1784,0.1785,0.1878,0,0.143,0.1478,0.1504,0.1549,0.1577,0.1607,0.164,0.1674,0.1699,0.1729,0.174,0.1764,0.175,0.176,0.1775,0.1792,0.1819,0.178,0.1817,0.1819,0.1844,0.1906,0.1779,0.1853,0.1886,0.1887,0.1888,0,0.1442,0.1474,0.1519,0.1576,0.1589,0.1615,0.1668,0.1701,0.1749,0.1768,0.1792,0.1801,0.1838,0.1809,0.1861,0.1837,0.1852,0.1862,0.1865,0.1882,0.1864,0.1822,0.1865,0.19,0.1899,0.1898,0.1897,0,0.1424,0.1485,0.1519,0.1539,0.1603,0.1623,0.1655,0.1708,0.1741,0.1791,0.182,0.1852,0.188,0.1892,0.193,0.1894,0.1992,0.1939,0.1986,0.1989,0.1881,0.1873,0.1974,0.1974,0.1973,0.1973,0.1973,0,0.143,0.1457,0.151,0.153,0.1565,0.1612,0.165,0.1691,0.1752,0.1799,0.1832,0.1882,0.19,0.1958,0.1963,0.2025,0.2022,0.2013,0.2018,0.1896,0.1889,0.1917,0.1909,0.1977,0.1976,0.1975,0.1975,0,0.1405,0.1445,0.1482,0.1541,0.1557,0.1578,0.1644,0.1677,0.1742,0.1806,0.1827,0.1921,0.2007,0.2046,0.2097,0.2085,0.2124,0.2144,0.2022,0.2012,0.2099,0.2092,0.219,0.2192,0.2193,0.2195,0.2196,0,0.1397,0.1416,0.1471,0.1489,0.1512,0.1551,0.158,0.1655,0.1698,0.1834,0.1867,0.1988,0.2066,0.2183,0.2201,0.2246,0.2221,0.2133,0.2032,0.2128,0.2123,0.2114,0.2105,0.1912,0.191,0.1909,0.1909,0,0.1376,0.1393,0.1422,0.1458,0.1486,0.152,0.1572,0.1608,0.1709,0.1779,0.1903,0.1985,0.2132,0.2143,0.2223,0.2212,0.2111,0.2116,0.2246,0.1886,0.1876,0.1868,0.1866,0.1899,0.19,0.1901,0.1901,0.1902,0.1348,0.1358,0.1395,0.1425,0.1457,0.149,0.1504,0.1569,0.164,0.1738,0.1864,0.1943,0.2021,0.2087,0.2061,0.2038,0.2156,0.2035,0.2033,0.2033,0.1994,0.1988,0.2027,0.2028,0.203,0.2031,0.2032,0,0.1312,0.1335,0.1363,0.1396,0.1412,0.1446,0.1498,0.1501,0.1556,0.1672,0.1763,0.1721,0.1783,0.1843,0.1821,0.1848,0.1766,0.1754,0.1625,0.164,0.1652,0.1585,0.1514,0.1511,0.1509,0.1506,0,0,0.1295,0.1307,0.1327,0.1343,0.1365,0.1367,0.1386,0.1395,0.1453,0.1491,0.1536,0.1701,0.1817,0.1629,0.164,0.157,0.1568,0.1512,0.1945,0.181,0.1817,0.1856,0.1779,0,0,0,0,0]},{"header":{"parameterUnit":"m.s-1","parameterCategory":2,"la1":30.2991,"la2":30.254,"lo1":-89.0895,"lo2":-89.0444,"dy":0.0017,"dx":0.0017,"nx":28,"ny":28,"refTime":"2024-10-05T03:00:00:Z","depth":"2","parameterNumber":3,"parameterNumberName":"V-component_of_CURRENTS"},"data":[0,0,0,0,0,0,0,0,0,0,0,0,0,0,0,0,0,0,0,0,0,0,0,0,0,0,0,0,0,0,0,0,0,0,0,0,0,0,0,0,0,0,0,0,0,0,0,0,0,0,0,0,0,0,0,0,0,0,-0.0138,-0.0138,0,-0.0176,-0.0176,-0.0177,-0.0206,-0.0206,-0.0206,-0.0207,-0.0261,-0.0263,-0.0264,0,0,0,0,0,0,0,0,0,0,0,0,0,-0.0108,-0.0108,-0.0138,-0.0138,-0.0139,-0.0176,-0.0176,-0.0177,-0.0206,-0.0206,-0.0206,-0.0207,-0.0261,-0.0263,-0.0264,0,0,0,0,0,0,0,0,0,0,0,0,0,-0.0131,-0.0108,-0.0138,-0.0157,-0.0159,-0.0176,-0.0176,-0.0177,-0.0206,-0.0206,-0.0206,-0.0207,-0.0261,-0.0262,-0.0264,-0.0269,0,0,-0.027,-0.0271,0,0,0,0,0,0,0,0,-0.013,-0.0132,-0.0154,-0.0156,-0.0158,-0.0186,-0.0186,-0.0208,-0.0206,-0.0189,-0.0207,-0.0207,-0.0237,-0.0241,-0.0248,-0.0271,-0.0273,-0.027,-0.0271,-0.0272,-0.0273,0,0,0,0,0,0,0,-0.0128,-0.0131,-0.0153,-0.0154,-0.0157,-0.017,-0.0174,-0.019,-0.0211,-0.019,-0.0192,-0.0196,-0.0239,-0.0246,-0.0249,-0.0274,-0.027,-0.0272,-0.0273,-0.0274,-0.0317,-0.0317,0,0,0,0,0,0,-0.0121,-0.0129,-0.0152,-0.0154,-0.0144,-0.017,-0.0174,-0.0177,-0.0211,-0.0216,-0.0195,-0.0197,-0.0243,-0.0247,-0.0251,-0.0274,-0.0272,-0.0274,-0.0275,-0.0317,-0.0317,-0.0317,0,0,0,0,0,0,-0.012,-0.0123,-0.015,-0.0142,-0.0147,-0.017,-0.0173,-0.0178,-0.0186,-0.0214,-0.022,-0.02,-0.0243,-0.0249,-0.0266,-0.0276,-0.0275,-0.0276,-0.0317,-0.0317,-0.0317,-0.031,0,0,0,0,0,0,-0.0119,-0.0122,-0.0122,-0.0142,-0.0147,-0.0157,-0.0173,-0.0178,-0.0188,-0.019,-0.022,-0.0225,-0.0244,-0.0263,-0.0268,-0.0279,-0.0278,-0.0317,-0.0317,-0.0317,-0.031,-0.031,-0.031,0,0,0,0,0,-0.0118,-0.0113,-0.0121,-0.0124,-0.0145,-0.0157,-0.016,-0.0179,-0.0187,-0.0188,-0.021,-0.0224,-0.0267,-0.0264,-0.027,-0.0282,-0.0317,-0.0317,-0.0317,-0.0311,-0.031,-0.031,0,0,0,0,0,0,-0.0097,-0.0116,-0.0126,-0.0126,-0.014,-0.0161,-0.0163,-0.0176,-0.0193,-0.0197,-0.0224,-0.023,-0.025,-0.0263,-0.0259,-0.0294,-0.0295,-0.0296,-0.0288,-0.0288,-0.0288,-0.0295,-0.0279,0,0,0,0,0,-0.0092,-0.0095,-0.0115,-0.0115,-0.0121,-0.0142,-0.0149,-0.0161,-0.0179,-0.0187,-0.0209,-0.0232,-0.0254,-0.0268,-0.0285,-0.0303,-0.0317,-0.0314,-0.0313,-0.0313,-0.0323,-0.0353,-0.0357,-0.0318,-0.0318,-0.0318,0,0,-0.0084,-0.0094,-0.0096,-0.0111,-0.0123,-0.0132,-0.0147,-0.0155,-0.0168,-0.019,-0.0211,-0.0229,-0.0257,-0.0278,-0.0289,-0.0292,-0.0327,-0.0313,-0.0313,-0.0323,-0.0354,-0.0358,-0.0361,-0.0318,-0.0318,-0.0318,0,0,-0.0069,-0.0078,-0.0077,-0.0088,-0.0104,-0.012,-0.0121,-0.0143,-0.0158,-0.0176,-0.0199,-0.0224,-0.0251,-0.028,-0.0297,-0.0305,-0.0322,-0.0307,-0.0318,-0.0347,-0.0351,-0.0354,-0.0357,-0.0362,-0.031,-0.031,-0.031,0,-0.0058,-0.0062,-0.0078,-0.0081,-0.009,-0.0113,-0.0117,-0.0136,-0.0162,-0.0177,-0.0179,-0.0234,-0.0256,-0.0298,-0.0304,-0.0307,-0.0316,-0.0317,-0.0347,-0.0351,-0.0355,-0.0358,-0.0362,-0.031,-0.031,-0.031,-0.031,0,-0.0046,-0.0051,-0.005,-0.0067,-0.0076,-0.0081,-0.0109,-0.0124,-0.0143,-0.0167,-0.0203,-0.0236,-0.0271,-0.0282,-0.0299,-0.034,-0.0333,-0.034,-0.0349,-0.0359,-0.0361,-0.0365,-0.0309,-0.0309,-0.031,-0.031,0,0,-0.002,-0.0039,-0.0039,-0.0042,-0.0069,-0.0072,-0.0098,-0.0128,-0.0141,-0.0178,-0.02,-0.0254,-0.0275,-0.0296,-0.0322,-0.0355,-0.0384,-0.0361,-0.0362,-0.0366,-0.0431,-0.0402,-0.0405,-0.0398,-0.0399,-0.04,-0.0414,0,-0.0008,-0.0007,-0.0025,-0.0027,-0.0029,-0.006,-0.0078,-0.0108,-0.0138,-0.0163,-0.0217,-0.0242,-0.028,-0.0291,-0.0336,-0.0369,-0.04,-0.0379,-0.0421,-0.0422,-0.0397,-0.0411,-0.0398,-0.0409,-0.0419,-0.042,-0.0421,0,0.0006,0.0006,0.0006,-0.0005,-0.0008,-0.0017,-0.0045,-0.0065,-0.0117,-0.0137,-0.0189,-0.0221,-0.0284,-0.0302,-0.0388,-0.0371,-0.0406,-0.0433,-0.0434,-0.0419,-0.0403,-0.0405,-0.0417,-0.0429,-0.0428,-0.0428,-0.0427,0,0.0035,0.0028,0.0031,0.0026,0.0007,-0.0002,-0.0016,-0.0059,-0.0064,-0.0122,-0.012,-0.021,-0.0225,-0.0308,-0.0369,-0.0381,-0.0443,-0.0463,-0.0472,-0.0469,-0.0473,-0.0468,-0.0527,-0.0526,-0.0526,-0.0526,-0.0526,0,0.0054,0.0058,0.0046,0.0049,0.0059,0.003,0.0031,0.0002,-0.0024,-0.0011,-0.0102,-0.0093,-0.0226,-0.0273,-0.0355,-0.0418,-0.0434,-0.0479,-0.0479,-0.0466,-0.0461,-0.0495,-0.0491,-0.0527,-0.0527,-0.0527,-0.0527,0,0.0082,0.0071,0.0081,0.0071,0.0073,0.0078,0.0079,0.0085,0.0051,0.0068,0.0059,-0.0002,-0.0057,-0.0177,-0.0284,-0.0369,-0.045,-0.0465,-0.0426,-0.0422,-0.0462,-0.0457,-0.0495,-0.0494,-0.0494,-0.0493,-0.0493,0,0.0096,0.0102,0.0108,0.0125,0.0122,0.0131,0.0146,0.0122,0.0144,0.0144,0.0172,0.0122,0.0122,-0.0031,-0.0205,-0.0349,-0.0384,-0.0431,-0.0467,-0.0466,-0.0463,-0.0459,-0.0456,-0.0462,-0.0461,-0.0461,-0.046,0,0.0126,0.0125,0.0137,0.0173,0.0195,0.0227,0.0252,0.0291,0.0286,0.0323,0.0385,0.0387,0.0232,0.0093,-0.0125,-0.0234,-0.0418,-0.0423,-0.0444,-0.0465,-0.0435,-0.0431,-0.0429,-0.0456,-0.0456,-0.0456,-0.0457,-0.0457,0.0153,0.0171,0.0191,0.0228,0.0263,0.0329,0.038,0.0435,0.0512,0.0584,0.0565,0.0582,0.037,0.0119,-0.0094,-0.0341,-0.034,-0.0433,-0.0436,-0.0438,-0.0425,-0.0395,-0.0405,-0.0405,-0.0405,-0.0405,-0.0405,0,0.0193,0.0213,0.0249,0.0301,0.036,0.0365,0.0461,0.053,0.066,0.0718,0.0777,0.0624,0.0444,0.0198,-0.0158,-0.0365,-0.0409,-0.0432,-0.0449,-0.0452,-0.0454,-0.0444,-0.0428,-0.0428,-0.0429,-0.0429,0,0,0.0216,0.0259,0.0278,0.0378,0.0424,0.0524,0.0595,0.0706,0.0778,0.0876,0.0888,0.0843,0.0541,0.0289,-0.0012,-0.0219,-0.0289,-0.0263,-0.0223,-0.0211,-0.0211,-0.0434,-0.0416,0,0,0,0,0]}],[{"header":{"parameterUnit":"m.s-1","parameterCategory":2,"la1":30.2991,"la2":30.254,"lo1":-89.0895,"lo2":-89.0444,"dy":0.0017,"dx":0.0017,"nx":28,"ny":28,"refTime":"2024-10-05T03:00:00:Z","depth":"4","parameterNumber":2,"parameterNumberName":"U-component_of_CURRENTS"},"data":[0,0,0,0,0,0,0,0,0,0,0,0,0,0,0,0,0,0,0,0,0,0,0,0,0,0,0,0,0,0,0,0,0,0,0,0,0,0,0,0,0,0,0,0,0,0,0,0,0,0,0,0,0,0,0,0,0,0,0.1002,0.1003,0,0.1056,0.1056,0.1057,0.1102,0.1102,0.1103,0.1104,0.1158,0.1159,0.116,0,0,0,0,0,0,0,0,0,0,0,0,0,0.0928,0.093,0.1002,0.1003,0.1004,0.1056,0.1056,0.1057,0.1102,0.1102,0.1103,0.1104,0.1158,0.1159,0.116,0,0,0,0,0,0,0,0,0,0,0,0,0,0.0968,0.093,0.1002,0.1033,0.1036,0.1056,0.1057,0.1057,0.1102,0.1102,0.1103,0.1104,0.1158,0.1159,0.116,0.1151,0,0,0.1164,0.1165,0,0,0,0,0,0,0,0,0.0966,0.0971,0.1028,0.1031,0.1035,0.1074,0.1051,0.1089,0.1101,0.1076,0.1104,0.1105,0.113,0.1134,0.114,0.1154,0.1156,0.1165,0.1165,0.1166,0.1166,0,0,0,0,0,0,0,0.0963,0.0968,0.1022,0.1028,0.1033,0.1041,0.1048,0.1058,0.1096,0.1078,0.1082,0.1089,0.1132,0.1139,0.1142,0.1157,0.1165,0.1166,0.1167,0.1167,0.123,0.1231,0,0,0,0,0,0,0.0958,0.0966,0.1021,0.1024,0.1003,0.1042,0.1049,0.106,0.1097,0.1103,0.1088,0.1091,0.1136,0.114,0.1144,0.1191,0.1166,0.1167,0.1168,0.1229,0.123,0.1231,0,0,0,0,0,0,0.0957,0.0963,0.1018,0.0997,0.1005,0.1042,0.1054,0.106,0.1091,0.1105,0.1111,0.1115,0.1137,0.1142,0.1174,0.1192,0.1168,0.1169,0.1228,0.1229,0.1231,0.125,0,0,0,0,0,0,0.0954,0.0962,0.0978,0.0997,0.1006,0.1044,0.1053,0.1061,0.1093,0.1098,0.1129,0.1134,0.1138,0.1172,0.1176,0.1193,0.117,0.1227,0.1229,0.123,0.1248,0.1252,0.1255,0,0,0,0,0,0.0951,0.0968,0.0979,0.0986,0.1024,0.1044,0.105,0.1078,0.1094,0.1109,0.1133,0.1134,0.1185,0.1174,0.1178,0.1196,0.1226,0.1228,0.123,0.1247,0.1251,0.1255,0,0,0,0,0,0,0.0948,0.0974,0.0987,0.1012,0.1033,0.1053,0.1074,0.109,0.112,0.1132,0.1144,0.115,0.1183,0.1188,0.1176,0.122,0.1206,0.1209,0.1218,0.1222,0.1225,0.1224,0.1171,0,0,0,0,0,0.0952,0.0973,0.0995,0.1018,0.103,0.1055,0.1072,0.109,0.1113,0.1129,0.1149,0.1171,0.1189,0.1205,0.1218,0.1243,0.1254,0.1258,0.1262,0.1264,0.1266,0.1306,0.1313,0.1237,0.1237,0.1237,0,0,0.0958,0.0976,0.0989,0.1019,0.1039,0.1051,0.1068,0.1098,0.1113,0.1128,0.1163,0.1182,0.1197,0.1224,0.124,0.1235,0.129,0.1267,0.1269,0.127,0.1308,0.1316,0.1322,0.1239,0.1238,0.1238,0,0,0.0965,0.0995,0.1009,0.1024,0.1056,0.1068,0.108,0.111,0.1133,0.1164,0.1178,0.1209,0.1239,0.1252,0.1261,0.129,0.1303,0.1302,0.1322,0.136,0.1366,0.1372,0.1389,0.1397,0.1307,0.1307,0.1307,0,0.0972,0.0989,0.1016,0.1027,0.1044,0.1075,0.1087,0.1109,0.1146,0.1169,0.118,0.1238,0.1248,0.1282,0.1293,0.1297,0.132,0.1304,0.1364,0.137,0.1376,0.1392,0.14,0.1308,0.1308,0.1308,0.1308,0,0.0976,0.0997,0.1008,0.103,0.105,0.107,0.1097,0.1128,0.1162,0.1182,0.1235,0.1259,0.1299,0.1304,0.1309,0.1356,0.1359,0.136,0.1353,0.1385,0.14,0.1407,0.131,0.131,0.1309,0.1309,0,0,0.0969,0.1004,0.1008,0.1021,0.1055,0.1071,0.1104,0.1141,0.1175,0.1216,0.1266,0.1294,0.1326,0.134,0.1357,0.1386,0.1439,0.1398,0.1399,0.1412,0.1522,0.1461,0.1463,0.1463,0.1465,0.1466,0.1514,0,0.0965,0.098,0.1003,0.1025,0.1035,0.1078,0.1105,0.1146,0.1192,0.1247,0.1288,0.1342,0.1334,0.1377,0.1402,0.1437,0.1462,0.1425,0.1492,0.1493,0.1433,0.1471,0.1471,0.152,0.1521,0.1523,0.1524,0,0.0952,0.0967,0.0985,0.1027,0.1039,0.1062,0.1128,0.1164,0.1238,0.1281,0.1343,0.1384,0.1442,0.1438,0.1503,0.1488,0.1508,0.1523,0.1525,0.1466,0.1446,0.1484,0.1538,0.1536,0.1535,0.1534,0.1534,0,0.0918,0.0955,0.0971,0.0983,0.1032,0.1066,0.1111,0.1179,0.1218,0.1326,0.1371,0.1441,0.1496,0.1536,0.1572,0.1555,0.1639,0.1617,0.1572,0.1567,0.1598,0.1591,0.1661,0.1661,0.1661,0.1661,0.1661,0,0.089,0.0906,0.0963,0.0968,0.1006,0.1061,0.112,0.1176,0.1262,0.1313,0.14,0.145,0.153,0.1584,0.1601,0.1614,0.1667,0.158,0.1581,0.1604,0.1597,0.1603,0.1596,0.1662,0.1662,0.1662,0.1661,0,0.084,0.0875,0.0898,0.0961,0.0987,0.1023,0.1116,0.1156,0.1253,0.133,0.1373,0.1475,0.1559,0.1615,0.1687,0.1646,0.167,0.1661,0.1684,0.1685,0.1559,0.1552,0.1603,0.1601,0.16,0.1599,0.1598,0,0.0812,0.0817,0.0881,0.0904,0.0938,0.1004,0.1044,0.1144,0.1186,0.133,0.1355,0.1478,0.1541,0.1585,0.1651,0.169,0.1673,0.1662,0.1597,0.156,0.1557,0.1552,0.1547,0.1596,0.1595,0.1595,0.1595,0,0.0759,0.079,0.081,0.0854,0.09,0.0942,0.1014,0.1034,0.1158,0.1244,0.1325,0.1392,0.1482,0.1545,0.1598,0.1615,0.1656,0.1646,0.1648,0.1587,0.1552,0.1548,0.1545,0.159,0.1591,0.1591,0.1591,0,0.0726,0.0729,0.0765,0.0798,0.085,0.0877,0.092,0.0984,0.1041,0.1195,0.1221,0.1362,0.1467,0.1508,0.1554,0.1579,0.1548,0.1483,0.1493,0.1499,0.1446,0.1385,0.1379,0,0,0,0,0,0.0689,0.0687,0.071,0.0744,0.0792,0.0826,0.0897,0.0944,0.1055,0.1085,0.1152,0.1242,0.1337,0.1404,0.1411,0.1506,0.1547,0.1506,0.1475,0.1563,0.1569,0.1518,0,0,0,0,0,0,0.0665,0.0682,0.0686,0.0694,0.0713,0.0761,0.0807,0.0878,0.0899,0.102,0.1078,0.1173,0.1279,0.133,0.1391,0.1412,0.1369,0.159,0.1587,0.156,0.1565,0.1569,0.1519,0,0,0,0,0]},{"header":{"parameterUnit":"m.s-1","parameterCategory":2,"la1":30.2991,"la2":30.254,"lo1":-89.0895,"lo2":-89.0444,"dy":0.0017,"dx":0.0017,"nx":28,"ny":28,"refTime":"2024-10-05T03:00:00:Z","depth":"4","parameterNumber":3,"parameterNumberName":"V-component_of_CURRENTS"},"data":[0,0,0,0,0,0,0,0,0,0,0,0,0,0,0,0,0,0,0,0,0,0,0,0,0,0,0,0,0,0,0,0,0,0,0,0,0,0,0,0,0,0,0,0,0,0,0,0,0,0,0,0,0,0,0,0,0,0,0.001,0.001,0,-0.0029,-0.0029,-0.003,-0.0052,-0.0052,-0.0052,-0.0052,-0.0098,-0.0099,-0.01,0,0,0,0,0,0,0,0,0,0,0,0,0,0.0063,0.0062,0.001,0.001,0.0009,-0.0029,-0.0029,-0.003,-0.0052,-0.0052,-0.0052,-0.0052,-0.0097,-0.0099,-0.01,0,0,0,0,0,0,0,0,0,0,0,0,0,0.0034,0.0062,0.001,-0.0006,-0.0008,-0.0029,-0.0029,-0.003,-0.0052,-0.0052,-0.0052,-0.0052,-0.0097,-0.0099,-0.01,-0.0109,0,0,-0.0106,-0.0106,0,0,0,0,0,0,0,0,0.0035,0.0032,-0.0003,-0.0005,-0.0007,-0.0035,-0.0027,-0.0057,-0.0052,-0.0035,-0.0052,-0.0052,-0.0077,-0.0081,-0.0088,-0.0111,-0.0113,-0.0106,-0.0107,-0.0108,-0.0108,0,0,0,0,0,0,0,0.0038,0.0033,-0.0005,-0.0004,-0.0006,-0.0012,-0.0017,-0.0033,-0.0056,-0.0037,-0.0038,-0.0042,-0.0079,-0.0086,-0.0089,-0.0114,-0.0106,-0.0107,-0.0108,-0.0109,-0.0144,-0.0144,0,0,0,0,0,0,0.0043,0.0035,-0.0004,-0.0006,0.0015,-0.0013,-0.0018,-0.0026,-0.0055,-0.006,-0.0042,-0.0043,-0.0083,-0.0087,-0.0091,-0.008,-0.0108,-0.0109,-0.011,-0.0144,-0.0144,-0.0144,0,0,0,0,0,0,0.0044,0.0039,-0.0003,0.0014,0.0008,-0.0014,-0.0023,-0.0027,-0.0037,-0.0059,-0.0064,-0.0048,-0.0083,-0.0088,-0.0103,-0.0083,-0.011,-0.0112,-0.0144,-0.0144,-0.0144,-0.0073,0,0,0,0,0,0,0.0046,0.004,0.0035,0.0014,0.0007,-0.0011,-0.0023,-0.0028,-0.0039,-0.004,-0.0066,-0.007,-0.0084,-0.0101,-0.0105,-0.0086,-0.0113,-0.0144,-0.0144,-0.0144,-0.0075,-0.007,-0.0066,0,0,0,0,0,0.0048,0.0042,0.0035,0.003,0.0002,-0.001,-0.0014,-0.003,-0.0039,-0.004,-0.0057,-0.0069,-0.0102,-0.0102,-0.0107,-0.0088,-0.0145,-0.0144,-0.0144,-0.0077,-0.0071,-0.0066,0,0,0,0,0,0,0.0059,0.0039,0.0031,0.0018,0.0007,-0.0014,-0.0018,-0.003,-0.0045,-0.0048,-0.007,-0.0075,-0.0081,-0.01,-0.0099,-0.01,-0.0125,-0.0126,-0.0072,-0.0067,-0.0062,-0.0029,-0.0114,0,0,0,0,0,0.0061,0.0053,0.0034,0.0025,0.002,0.0001,-0.0007,-0.0017,-0.0033,-0.004,-0.0057,-0.0075,-0.0084,-0.0088,-0.0106,-0.0106,-0.0126,-0.0098,-0.0094,-0.0089,-0.0068,-0.0086,-0.008,-0.0143,-0.0143,-0.0143,0,0,0.0062,0.0051,0.0045,0.0028,0.0017,0.0027,-0.0004,-0.0013,0.0002,-0.0043,-0.0034,-0.0063,-0.0083,-0.0081,-0.0085,-0.0093,-0.0086,-0.0089,-0.0085,-0.0065,-0.0085,-0.0079,-0.0073,-0.0143,-0.0143,-0.0143,0,0,0.0075,0.0053,0.0058,0.0055,0.0043,0.0037,0.0036,0.0017,0.0014,0.0011,-0.0011,-0.0022,-0.0047,-0.0045,-0.0049,-0.003,-0.0065,-0.0047,0.0013,-0.0006,0.0,0.0005,-0.0025,-0.0024,-0.0038,-0.0038,-0.0038,0,0.0079,0.0086,0.0058,0.007,0.008,0.0048,0.0071,0.0064,0.0044,0.0054,0.0022,0.0006,-0.0019,0.0009,0.0012,-0.0014,-0.0042,-0.0003,0.0003,0.0007,0.0011,-0.0021,-0.002,-0.0035,-0.0035,-0.0035,-0.0036,0,0.0104,0.0114,0.0118,0.013,0.0134,0.0144,0.014,0.0142,0.0128,0.0125,0.0131,0.0092,0.0087,0.0074,0.0049,0.0069,0.0033,0.0008,-0.0005,0.0022,-0.0014,-0.0015,-0.003,-0.0031,-0.0032,-0.0033,0,0,0.0107,0.0132,0.0136,0.0162,0.0171,0.0178,0.0209,0.0232,0.0257,0.023,0.026,0.0239,0.0206,0.0199,0.0163,0.0151,0.0139,0.0093,0.009,0.0075,0.0083,0.0039,0.0034,0.0107,0.0108,0.0108,0.0043,0,0.0141,0.0187,0.0191,0.0245,0.0273,0.0272,0.0308,0.0323,0.0318,0.0332,0.0309,0.0305,0.0258,0.0241,0.0229,0.0154,0.0143,0.0158,0.005,0.0047,0.0015,0.0035,0.011,0.0043,0.0042,0.0042,0.0042,0,0.017,0.0201,0.0261,0.0319,0.0331,0.0358,0.041,0.0434,0.0452,0.0444,0.0444,0.0404,0.039,0.0331,0.0257,0.0261,0.0187,0.0131,0.0127,0.0068,0.0003,0.001,0.0041,0.0041,0.0041,0.0041,0.0041,0,0.0195,0.0253,0.0306,0.0325,0.038,0.0412,0.0438,0.0469,0.0493,0.0503,0.0501,0.0485,0.0445,0.0379,0.025,0.0248,0.0151,0.013,0.0032,0.0027,0.0055,0.005,0.0091,0.0092,0.0092,0.0092,0.0092,0,0.0233,0.0275,0.0321,0.0351,0.0417,0.0442,0.0503,0.0524,0.0552,0.0575,0.0548,0.0538,0.0448,0.0373,0.0277,0.0146,0.0167,0.0055,0.0016,0.0082,0.0081,0.0053,0.005,0.0089,0.009,0.009,0.0091,0,0.025,0.0281,0.0342,0.0407,0.0429,0.047,0.053,0.0567,0.0585,0.0607,0.0604,0.0564,0.0462,0.0365,0.0235,0.016,0.0052,-0.0001,0.0072,0.0035,-0.0062,-0.0062,-0.0094,-0.0096,-0.0097,-0.0099,-0.01,0,0.0264,0.0297,0.037,0.0401,0.0429,0.049,0.0532,0.0576,0.0603,0.0611,0.0613,0.0536,0.0488,0.0292,0.0183,0.0021,-0.001,-0.0062,-0.004,-0.0042,-0.0077,-0.0074,-0.0071,-0.0102,-0.0103,-0.0103,-0.0103,0,0.0288,0.0307,0.0353,0.0415,0.0463,0.0522,0.0574,0.0596,0.0633,0.0648,0.061,0.0522,0.0406,0.0274,0.0137,0.0021,-0.0018,-0.0079,-0.0076,-0.0056,-0.0053,-0.0086,-0.0081,-0.0109,-0.0108,-0.0108,-0.0107,0,0.0294,0.0322,0.0371,0.0425,0.0483,0.0531,0.0567,0.0592,0.0622,0.0628,0.0605,0.0504,0.0449,0.027,0.0146,0.0027,0.0004,-0.0026,-0.0026,-0.0021,0.0016,0.0031,-0.002,0,0,0,0,0,0.0298,0.0326,0.0377,0.0435,0.049,0.0524,0.0585,0.0614,0.0642,0.0617,0.0617,0.0511,0.0336,0.0265,0.014,0.0108,-0.0024,-0.0045,-0.006,-0.014,-0.0134,-0.0106,0,0,0,0,0,0,0.0302,0.0346,0.0371,0.0428,0.0464,0.0528,0.0567,0.0591,0.0579,0.0589,0.0501,0.0469,0.0301,0.0402,0.0132,0.0097,0.0068,-0.012,-0.0123,-0.0144,-0.0138,-0.0133,-0.0102,0,0,0,0,0]}]]